URO629 KONT-KMEM

Flight info

Callsign URO629
Flight time 2h 28m
Altitude 39000
Route RAJEE4 AVRRY LANCY DRK KA30Q KA33U KA33Y NOSEW IRW LITTR HOBRK4
Aircraft A346/H-SDE2E3FGHIJ3J4J5M1RWXY/LB1D1

Departure

Time 2026-05-04 00:17
Airport Ontario International Airport (KONT)

Arrival

Time 2026-05-04 02:45
Airport Memphis International Airport (KMEM)
Time Latitude Longitude Altitude Speed Heading
2026-05-03 23:41 34.05960 -117.61847 953 ft 0 kts
2026-05-04 00:01 34.05959 -117.61847 954 ft 2 kts
2026-05-04 00:02 34.05955 -117.61847 954 ft 4 kts
2026-05-04 00:02 34.05948 -117.61847 959 ft 4 kts
2026-05-04 00:02 34.05923 -117.61853 949 ft 4 kts 21°
2026-05-04 00:02 34.05902 -117.61868 949 ft 4 kts 42°
2026-05-04 00:03 34.05887 -117.61891 949 ft 4 kts 64°
2026-05-04 00:03 34.05879 -117.61920 949 ft 4 kts 84°
2026-05-04 00:03 34.05879 -117.61936 949 ft 0 kts 90°
2026-05-04 00:07 34.05879 -117.61920 949 ft 7 kts 90°
2026-05-04 00:07 34.05879 -117.61816 951 ft 15 kts 91°
2026-05-04 00:07 34.05816 -117.61713 951 ft 17 kts 127°
2026-05-04 00:08 34.05799 -117.61563 952 ft 20 kts 89°
2026-05-04 00:08 34.05799 -117.61385 952 ft 22 kts 90°
2026-05-04 00:08 34.05798 -117.61195 952 ft 22 kts 90°
2026-05-04 00:08 34.05799 -117.61046 952 ft 16 kts 90°
2026-05-04 00:09 34.05799 -117.60899 953 ft 19 kts 89°
2026-05-04 00:09 34.05800 -117.60744 954 ft 16 kts 89°
2026-05-04 00:09 34.05802 -117.60621 954 ft 14 kts 89°
2026-05-04 00:09 34.05802 -117.60488 954 ft 18 kts 91°
2026-05-04 00:10 34.05799 -117.60324 954 ft 21 kts 90°
2026-05-04 00:10 34.05800 -117.60137 954 ft 23 kts 89°
2026-05-04 00:10 34.05802 -117.59936 953 ft 25 kts 90°
2026-05-04 00:10 34.05801 -117.59721 952 ft 25 kts 90°
2026-05-04 00:11 34.05800 -117.59548 952 ft 20 kts 91°
2026-05-04 00:11 34.05799 -117.59368 952 ft 23 kts 90°
2026-05-04 00:11 34.05799 -117.59172 953 ft 24 kts 90°
2026-05-04 00:11 34.05799 -117.58991 953 ft 19 kts 89°
2026-05-04 00:12 34.05801 -117.58816 954 ft 22 kts 89°
2026-05-04 00:12 34.05802 -117.58626 954 ft 23 kts 90°
2026-05-04 00:12 34.05802 -117.58501 954 ft 0 kts 89°
2026-05-04 00:12 34.05802 -117.58487 954 ft 6 kts 89°
2026-05-04 00:13 34.05803 -117.58387 954 ft 14 kts 90°
2026-05-04 00:13 34.05795 -117.58307 953 ft 3 kts 115°
2026-05-04 00:13 34.05794 -117.58306 953 ft 0 kts 116°
2026-05-04 00:15 34.05794 -117.58304 953 ft 1 kts 117°
2026-05-04 00:15 34.05777 -117.58282 950 ft 6 kts 144°
2026-05-04 00:15 34.05726 -117.58270 951 ft 8 kts 188°
2026-05-04 00:15 34.05699 -117.58291 952 ft 0 kts 237°
2026-05-04 00:16 34.05697 -117.58298 953 ft 2 kts 249°
2026-05-04 00:16 34.05691 -117.58354 954 ft 21 kts 267°
2026-05-04 00:16 34.05687 -117.58831 952 ft 91 kts 270°
2026-05-04 00:16 34.05688 -117.59858 950 ft 151 kts 270°
2026-05-04 00:17 34.05704 -117.61323 1079 ft 190 kts 269°
2026-05-04 00:17 34.05693 -117.62956 1786 ft 192 kts 260°
2026-05-04 00:17 34.05128 -117.64341 2831 ft 182 kts 225°
2026-05-04 00:17 34.04039 -117.65139 3501 ft 192 kts 197°
2026-05-04 00:18 34.02643 -117.65127 3918 ft 215 kts 165°
2026-05-04 00:18 34.01322 -117.64116 4339 ft 237 kts 141°
2026-05-04 00:18 34.00055 -117.62703 4771 ft 259 kts 138°
2026-05-04 00:18 33.98726 -117.61155 5400 ft 271 kts 137°
2026-05-04 00:19 33.97368 -117.59584 6253 ft 269 kts 138°
2026-05-04 00:19 33.96013 -117.58033 6757 ft 268 kts 139°
2026-05-04 00:19 33.94664 -117.56501 6987 ft 272 kts 140°
2026-05-04 00:19 33.93238 -117.54909 7072 ft 281 kts 140°
2026-05-04 00:20 33.91798 -117.53305 7827 ft 285 kts 141°
2026-05-04 00:20 33.90282 -117.51814 9030 ft 279 kts 147°
2026-05-04 00:20 33.88712 -117.50428 10007 ft 282 kts 148°
2026-05-04 00:20 33.87089 -117.49039 10766 ft 293 kts 149°
2026-05-04 00:21 33.85344 -117.47574 11322 ft 311 kts 149°
2026-05-04 00:21 33.83540 -117.46065 11818 ft 329 kts 149°
2026-05-04 00:21 33.81580 -117.44426 12321 ft 348 kts 149°
2026-05-04 00:21 33.79546 -117.42724 12820 ft 360 kts 149°
2026-05-04 00:22 33.77481 -117.40990 12979 ft 363 kts 149°
2026-05-04 00:22 33.75410 -117.39248 12968 ft 364 kts 149°
2026-05-04 00:22 33.73348 -117.37476 13007 ft 367 kts 145°
2026-05-04 00:22 33.71639 -117.35080 13138 ft 393 kts 124°
2026-05-04 00:23 33.70698 -117.31957 14028 ft 402 kts 103°
2026-05-04 00:23 33.70356 -117.28629 15101 ft 401 kts 100°
2026-05-04 00:23 33.70057 -117.25257 15748 ft 411 kts 100°
2026-05-04 00:23 33.69747 -117.21781 16276 ft 423 kts 100°
2026-05-04 00:24 33.69421 -117.18226 16932 ft 432 kts 100°
2026-05-04 00:24 33.69082 -117.14604 17569 ft 440 kts 101°
2026-05-04 00:24 33.68733 -117.10920 18187 ft 448 kts 101°
2026-05-04 00:24 33.68370 -117.07158 18732 ft 456 kts 101°
2026-05-04 00:25 33.68002 -117.03347 19298 ft 462 kts 101°
2026-05-04 00:25 33.67634 -116.99543 19892 ft 467 kts 101°
2026-05-04 00:25 33.67257 -116.95648 20524 ft 472 kts 101°
2026-05-04 00:25 33.66872 -116.91708 21128 ft 477 kts 101°
2026-05-04 00:26 33.66481 -116.87726 21730 ft 482 kts 101°
2026-05-04 00:26 33.66083 -116.83699 22273 ft 487 kts 100°
2026-05-04 00:26 33.65683 -116.79644 22930 ft 491 kts 100°
2026-05-04 00:26 33.65411 -116.76882 23332 ft 494 kts 100°
2026-05-04 00:27 33.64876 -116.71414 24030 ft 499 kts 100°
2026-05-04 00:27 33.64603 -116.68615 24459 ft 500 kts 100°
2026-05-04 00:27 33.64194 -116.64445 25017 ft 504 kts 100°
2026-05-04 00:27 33.63777 -116.60242 25443 ft 510 kts 100°
2026-05-04 00:28 33.63352 -116.55991 25915 ft 516 kts 100°
2026-05-04 00:28 33.62922 -116.51687 26519 ft 520 kts 101°
2026-05-04 00:28 33.62488 -116.47358 26962 ft 525 kts 101°
2026-05-04 00:28 33.62044 -116.42982 27386 ft 531 kts 101°
2026-05-04 00:29 33.61598 -116.38550 27867 ft 536 kts 101°
2026-05-04 00:29 33.61186 -116.34070 28294 ft 542 kts 98°
2026-05-04 00:29 33.60962 -116.29529 28833 ft 548 kts 95°
2026-05-04 00:29 33.60838 -116.24934 29240 ft 553 kts 94°
2026-05-04 00:30 33.60737 -116.20282 29635 ft 559 kts 94°
2026-05-04 00:30 33.60645 -116.15594 30040 ft 564 kts 92°
2026-05-04 00:30 33.60731 -116.10879 30583 ft 565 kts 88°
2026-05-04 00:30 33.61085 -116.06172 31052 ft 567 kts 83°
2026-05-04 00:31 33.61734 -116.01476 31419 ft 572 kts 77°
2026-05-04 00:31 33.62688 -115.96833 31742 ft 575 kts 72°
2026-05-04 00:31 33.63949 -115.92261 32131 ft 577 kts 66°
2026-05-04 00:31 33.65384 -115.87762 32664 ft 576 kts 65°
2026-05-04 00:32 33.66865 -115.83286 33176 ft 577 kts 64°
2026-05-04 00:32 33.68347 -115.78789 33660 ft 579 kts 65°
2026-05-04 00:32 33.69808 -115.74269 34053 ft 581 kts 65°
2026-05-04 00:32 33.71251 -115.69730 34440 ft 582 kts 65°
2026-05-04 00:33 33.72684 -115.65172 34898 ft 582 kts 66°
2026-05-04 00:33 33.75554 -115.56105 35987 ft 576 kts 64°
2026-05-04 00:33 33.77095 -115.51667 36446 ft 574 kts 63°
2026-05-04 00:34 33.78677 -115.47241 36825 ft 575 kts 63°
2026-05-04 00:34 33.80263 -115.42828 37135 ft 576 kts 62°
2026-05-04 00:34 33.81858 -115.38383 37414 ft 578 kts 63°
2026-05-04 00:34 33.83451 -115.33920 37666 ft 580 kts 63°
2026-05-04 00:35 33.85042 -115.29445 37750 ft 582 kts 63°
2026-05-04 00:35 33.88209 -115.20485 37738 ft 581 kts 63°
2026-05-04 00:36 33.91340 -115.11587 37730 ft 581 kts 63°
2026-05-04 00:36 33.94492 -115.02613 37729 ft 581 kts 63°
2026-05-04 00:37 33.97622 -114.93671 37714 ft 577 kts 63°
2026-05-04 00:37 34.00735 -114.84762 37713 ft 576 kts 63°
2026-05-04 00:38 34.03844 -114.75839 37713 ft 576 kts 63°
2026-05-04 00:38 34.06946 -114.66909 37707 ft 577 kts 63°
2026-05-04 00:39 34.10042 -114.57969 37706 ft 577 kts 63°
2026-05-04 00:39 34.13133 -114.49021 37705 ft 577 kts 63°
2026-05-04 00:40 34.16231 -114.40028 37939 ft 581 kts 64°
2026-05-04 00:40 34.17776 -114.35526 38342 ft 579 kts 63°
2026-05-04 00:40 34.19315 -114.31035 38657 ft 576 kts 64°
2026-05-04 00:41 34.22377 -114.22095 38707 ft 574 kts 64°
2026-05-04 00:41 34.25424 -114.13165 38716 ft 574 kts 64°
2026-05-04 00:42 34.28244 -114.04114 38719 ft 575 kts 68°
2026-05-04 00:42 34.30772 -113.94942 38719 ft 574 kts 69°
2026-05-04 00:43 34.33271 -113.85796 38729 ft 568 kts 69°
2026-05-04 00:43 34.35757 -113.76714 38725 ft 567 kts 69°
2026-05-04 00:44 34.38237 -113.67654 38725 ft 565 kts 69°
2026-05-04 00:44 34.40710 -113.58613 38738 ft 565 kts 69°
2026-05-04 00:45 34.43174 -113.49568 38736 ft 565 kts 69°
2026-05-04 00:45 34.45634 -113.40510 38763 ft 564 kts 69°
2026-05-04 00:46 34.48072 -113.31493 38758 ft 561 kts 69°
2026-05-04 00:46 34.50484 -113.22551 38772 ft 561 kts 69°
2026-05-04 00:47 34.52904 -113.13545 38771 ft 561 kts 69°
2026-05-04 00:47 34.55319 -113.04533 38783 ft 560 kts 69°
2026-05-04 00:48 34.57715 -112.95554 38793 ft 559 kts 69°
2026-05-04 00:48 34.60109 -112.86563 38793 ft 559 kts 69°
2026-05-04 00:49 34.62495 -112.77563 38812 ft 559 kts 69°
2026-05-04 00:49 34.64864 -112.68595 38811 ft 555 kts 69°
2026-05-04 00:50 34.67218 -112.59650 38804 ft 555 kts 70°
2026-05-04 00:50 34.69536 -112.50685 38806 ft 557 kts 72°
2026-05-04 00:50 34.70488 -112.46113 39007 ft 558 kts 76°
2026-05-04 00:51 34.71207 -112.41468 39016 ft 559 kts 79°
2026-05-04 00:51 34.72396 -112.32126 38989 ft 558 kts 81°
2026-05-04 00:52 34.73556 -112.22775 38947 ft 559 kts 81°
2026-05-04 00:52 34.74736 -112.13427 38898 ft 559 kts 80°
2026-05-04 00:53 34.75920 -112.04093 38902 ft 557 kts 80°
2026-05-04 00:53 34.77099 -111.94779 38939 ft 556 kts 80°
2026-05-04 00:54 34.78270 -111.85461 38978 ft 556 kts 81°
2026-05-04 00:54 34.79430 -111.76148 38966 ft 554 kts 80°
2026-05-04 00:55 34.80574 -111.66903 38965 ft 550 kts 80°
2026-05-04 00:55 34.81712 -111.57683 38937 ft 550 kts 80°
2026-05-04 00:56 34.82842 -111.48467 38870 ft 550 kts 80°
2026-05-04 00:56 34.83956 -111.39303 38877 ft 550 kts 80°
2026-05-04 00:57 34.85073 -111.30063 38876 ft 550 kts 81°
2026-05-04 00:57 34.86185 -111.20807 38865 ft 550 kts 81°
2026-05-04 00:58 34.87283 -111.11583 38864 ft 549 kts 81°
2026-05-04 00:58 34.88371 -111.02380 38891 ft 548 kts 80°
2026-05-04 00:59 34.89454 -110.93196 38917 ft 547 kts 81°
2026-05-04 00:59 34.90529 -110.83988 38930 ft 549 kts 80°
2026-05-04 01:00 34.91604 -110.74720 38977 ft 552 kts 80°
2026-05-04 01:00 34.92680 -110.65405 38972 ft 553 kts 81°
2026-05-04 01:00 34.93213 -110.60765 38819 ft 553 kts 81°
2026-05-04 01:01 34.93744 -110.56113 38808 ft 553 kts 81°
2026-05-04 01:01 34.94801 -110.46818 38826 ft 553 kts 81°
2026-05-04 01:02 34.95850 -110.37531 38808 ft 552 kts 81°
2026-05-04 01:02 34.96891 -110.28241 38800 ft 553 kts 81°
2026-05-04 01:03 34.97926 -110.18935 38807 ft 553 kts 81°
2026-05-04 01:03 34.98950 -110.09639 38797 ft 551 kts 81°
2026-05-04 01:04 34.99967 -110.00402 38805 ft 547 kts 79°
2026-05-04 01:04 35.01220 -109.91259 38810 ft 547 kts 78°
2026-05-04 01:05 35.02534 -109.82110 38809 ft 547 kts 78°
2026-05-04 01:05 35.03830 -109.72948 38822 ft 547 kts 78°
2026-05-04 01:06 35.05114 -109.63775 38831 ft 548 kts 78°
2026-05-04 01:06 35.06388 -109.54596 38831 ft 548 kts 78°
2026-05-04 01:07 35.07654 -109.45425 38865 ft 548 kts 78°
2026-05-04 01:07 35.08914 -109.36229 38858 ft 548 kts 78°
2026-05-04 01:08 35.10168 -109.27034 38849 ft 548 kts 78°
2026-05-04 01:08 35.11415 -109.17835 38852 ft 548 kts 78°
2026-05-04 01:09 35.12656 -109.08628 38850 ft 549 kts 78°
2026-05-04 01:09 35.13881 -108.99481 38842 ft 549 kts 78°
2026-05-04 01:10 35.15109 -108.90257 38845 ft 549 kts 78°
2026-05-04 01:10 35.16331 -108.81029 38860 ft 549 kts 78°
2026-05-04 01:11 35.17547 -108.71794 38859 ft 550 kts 78°
2026-05-04 01:11 35.18756 -108.62539 38865 ft 551 kts 79°
2026-05-04 01:12 35.19765 -108.54785 38879 ft 551 kts 79°
2026-05-04 01:12 35.20962 -108.45526 38878 ft 550 kts 79°
2026-05-04 01:13 35.22152 -108.36261 38888 ft 552 kts 79°
2026-05-04 01:13 35.23339 -108.26967 38927 ft 552 kts 79°
2026-05-04 01:14 35.24516 -108.17692 38980 ft 551 kts 79°
2026-05-04 01:14 35.25688 -108.08399 39031 ft 552 kts 79°
2026-05-04 01:15 35.26850 -107.99121 39070 ft 551 kts 79°
2026-05-04 01:15 35.28008 -107.89827 39080 ft 552 kts 79°
2026-05-04 01:16 35.29158 -107.80531 38889 ft 552 kts 79°
2026-05-04 01:16 35.30301 -107.71225 38908 ft 553 kts 79°
2026-05-04 01:17 35.31440 -107.61892 38899 ft 554 kts 79°
2026-05-04 01:17 35.32576 -107.52531 38889 ft 554 kts 79°
2026-05-04 01:18 35.33704 -107.43174 38897 ft 554 kts 79°
2026-05-04 01:18 35.34818 -107.33825 38889 ft 552 kts 79°
2026-05-04 01:19 35.35926 -107.24514 38903 ft 551 kts 79°
2026-05-04 01:19 35.37019 -107.15272 38899 ft 551 kts 79°
2026-05-04 01:20 35.38119 -107.05897 38898 ft 551 kts 79°
2026-05-04 01:20 35.39197 -106.96628 38901 ft 546 kts 79°
2026-05-04 01:21 35.40257 -106.87467 38906 ft 545 kts 79°
2026-05-04 01:21 35.41319 -106.78238 38909 ft 546 kts 79°
2026-05-04 01:22 35.42372 -106.69015 38918 ft 545 kts 79°
2026-05-04 01:22 35.43416 -106.59804 38909 ft 545 kts 79°
2026-05-04 01:23 35.44454 -106.50581 38903 ft 545 kts 79°
2026-05-04 01:23 35.45483 -106.41353 38932 ft 545 kts 79°
2026-05-04 01:24 35.46507 -106.32118 38976 ft 545 kts 79°
2026-05-04 01:24 35.47523 -106.22890 39009 ft 545 kts 80°
2026-05-04 01:25 35.48530 -106.13654 39028 ft 545 kts 80°
2026-05-04 01:25 35.49530 -106.04414 39042 ft 545 kts 80°
2026-05-04 01:26 35.50142 -105.95117 39023 ft 547 kts 87°
2026-05-04 01:26 35.50288 -105.85769 38929 ft 546 kts 88°
2026-05-04 01:27 35.50395 -105.76442 38939 ft 546 kts 88°
2026-05-04 01:27 35.50515 -105.67109 38940 ft 546 kts 88°
2026-05-04 01:28 35.50637 -105.57781 38925 ft 546 kts 88°
2026-05-04 01:28 35.50755 -105.48442 38939 ft 546 kts 88°
2026-05-04 01:29 35.50867 -105.39115 38972 ft 546 kts 88°
2026-05-04 01:29 35.50971 -105.29788 38985 ft 544 kts 88°
2026-05-04 01:30 35.51066 -105.20451 39013 ft 545 kts 88°
2026-05-04 01:30 35.51156 -105.11128 39017 ft 546 kts 88°
2026-05-04 01:31 35.51238 -105.01802 38994 ft 545 kts 88°
2026-05-04 01:31 35.51276 -104.97154 38835 ft 545 kts 88°
2026-05-04 01:31 35.51313 -104.92500 38822 ft 545 kts 88°
2026-05-04 01:32 35.51380 -104.83162 38820 ft 546 kts 88°
2026-05-04 01:32 35.51441 -104.73790 38822 ft 546 kts 88°
2026-05-04 01:33 35.51494 -104.64458 38814 ft 545 kts 88°
2026-05-04 01:33 35.51540 -104.55135 38809 ft 545 kts 88°
2026-05-04 01:34 35.51580 -104.45794 38805 ft 546 kts 88°
2026-05-04 01:34 35.51611 -104.36461 38802 ft 546 kts 88°
2026-05-04 01:35 35.51636 -104.27125 38803 ft 546 kts 88°
2026-05-04 01:35 35.51651 -104.17795 38815 ft 546 kts 88°
2026-05-04 01:36 35.51661 -104.08445 38810 ft 547 kts 88°
2026-05-04 01:36 35.51665 -103.99113 38811 ft 547 kts 88°
2026-05-04 01:37 35.51661 -103.89766 38819 ft 546 kts 88°
2026-05-04 01:37 35.51649 -103.80421 38811 ft 547 kts 88°
2026-05-04 01:38 35.51630 -103.71126 38830 ft 547 kts 88°
2026-05-04 01:38 35.51606 -103.61765 38840 ft 547 kts 88°
2026-05-04 01:39 35.51573 -103.52415 38828 ft 547 kts 88°
2026-05-04 01:39 35.51533 -103.43063 38829 ft 548 kts 89°
2026-05-04 01:40 35.51485 -103.33696 38845 ft 548 kts 89°
2026-05-04 01:40 35.51431 -103.24333 38828 ft 547 kts 89°
2026-05-04 01:41 35.51369 -103.15005 38847 ft 545 kts 89°
2026-05-04 01:41 35.51297 -103.05669 38874 ft 548 kts 89°
2026-05-04 01:42 35.51221 -102.96293 38871 ft 549 kts 89°
2026-05-04 01:42 35.51138 -102.86915 38875 ft 549 kts 89°
2026-05-04 01:43 35.51047 -102.77529 38886 ft 549 kts 89°
2026-05-04 01:43 35.50946 -102.68148 38892 ft 549 kts 89°
2026-05-04 01:44 35.50842 -102.58759 38879 ft 549 kts 89°
2026-05-04 01:44 35.50730 -102.49434 38889 ft 549 kts 89°
2026-05-04 01:45 35.50608 -102.40036 38895 ft 549 kts 89°
2026-05-04 01:45 35.50411 -102.25937 38876 ft 551 kts 89°
2026-05-04 01:46 35.50272 -102.16531 38871 ft 551 kts 89°
2026-05-04 01:46 35.50122 -102.07122 38870 ft 551 kts 89°
2026-05-04 01:47 35.50039 -101.97707 38875 ft 550 kts 86°
2026-05-04 01:47 35.50244 -101.88308 38885 ft 551 kts 85°
2026-05-04 01:48 35.50474 -101.78894 38896 ft 551 kts 85°
2026-05-04 01:48 35.50678 -101.69475 38888 ft 551 kts 85°
2026-05-04 01:49 35.50866 -101.60060 38886 ft 551 kts 85°
2026-05-04 01:49 35.50927 -101.56961 38893 ft 551 kts 85°
2026-05-04 01:50 35.51096 -101.48076 38893 ft 551 kts 86°
2026-05-04 01:50 35.51268 -101.38657 38898 ft 551 kts 86°
2026-05-04 01:51 35.51432 -101.29244 38908 ft 551 kts 86°
2026-05-04 01:51 35.51587 -101.19827 38919 ft 550 kts 86°
2026-05-04 01:52 35.51735 -101.10435 38935 ft 550 kts 86°
2026-05-04 01:52 35.51874 -101.01021 38946 ft 551 kts 86°
2026-05-04 01:53 35.51687 -100.91597 38939 ft 552 kts 90°
2026-05-04 01:53 35.51346 -100.82175 38922 ft 552 kts 90°
2026-05-04 01:54 35.50998 -100.72747 38901 ft 552 kts 90°
2026-05-04 01:54 35.50654 -100.63314 38881 ft 552 kts 90°
2026-05-04 01:55 35.50263 -100.52711 38880 ft 552 kts 90°
2026-05-04 01:55 35.47931 -99.93980 38882 ft 552 kts 90°
2026-05-04 01:56 35.46037 -99.50833 38919 ft 552 kts 91°
2026-05-04 01:56 35.43581 -98.99462 38906 ft 552 kts 91°
2026-05-04 01:57 35.40925 -98.48416 38931 ft 552 kts 91°
2026-05-04 01:57 35.38041 -97.97211 38956 ft 551 kts 91°
2026-05-04 01:58 35.34520 -97.47471 38962 ft 550 kts 95°
2026-05-04 01:58 35.29232 -96.97637 38948 ft 551 kts 95°
2026-05-04 01:59 35.23666 -96.46893 38988 ft 549 kts 95°
2026-05-04 01:59 35.18163 -95.98613 38997 ft 545 kts 95°
2026-05-04 02:00 35.12435 -95.50099 38998 ft 541 kts 95°
2026-05-04 02:00 35.09377 -95.24868 39006 ft 542 kts 95°
2026-05-04 02:01 35.08262 -95.15769 38998 ft 541 kts 95°
2026-05-04 02:01 35.07150 -95.06741 38994 ft 540 kts 95°
2026-05-04 02:02 35.06024 -94.97664 38994 ft 540 kts 96°
2026-05-04 02:02 35.04890 -94.88601 38998 ft 538 kts 96°
2026-05-04 02:03 35.03753 -94.79577 38998 ft 537 kts 96°
2026-05-04 02:03 35.02612 -94.70550 38994 ft 537 kts 96°
2026-05-04 02:04 35.01462 -94.61522 39010 ft 538 kts 96°
2026-05-04 02:04 35.00308 -94.52511 39023 ft 535 kts 96°
2026-05-04 02:05 34.99153 -94.43554 39012 ft 534 kts 96°
2026-05-04 02:05 34.97991 -94.34601 39006 ft 534 kts 96°
2026-05-04 02:06 34.96824 -94.25653 39003 ft 534 kts 96°
2026-05-04 02:06 34.95650 -94.16707 39020 ft 533 kts 96°
2026-05-04 02:07 34.94475 -94.07807 39003 ft 531 kts 96°
2026-05-04 02:07 34.93296 -93.98924 39005 ft 531 kts 96°
2026-05-04 02:08 34.92094 -93.89939 38995 ft 533 kts 96°
2026-05-04 02:08 34.90967 -93.81540 39003 ft 534 kts 96°
2026-05-04 02:09 34.89772 -93.72682 39011 ft 530 kts 96°
2026-05-04 02:09 34.88559 -93.63759 39015 ft 530 kts 96°
2026-05-04 02:10 34.87355 -93.54939 39008 ft 530 kts 96°
2026-05-04 02:10 34.86137 -93.46077 38998 ft 530 kts 96°
2026-05-04 02:11 34.84912 -93.37204 39001 ft 530 kts 96°
2026-05-04 02:11 34.83683 -93.28352 39005 ft 530 kts 96°
2026-05-04 02:12 34.82444 -93.19482 39009 ft 530 kts 96°
2026-05-04 02:12 34.81201 -93.10628 39018 ft 530 kts 97°
2026-05-04 02:13 34.79951 -93.01773 39032 ft 529 kts 97°
2026-05-04 02:13 34.78703 -92.92980 39027 ft 528 kts 97°
2026-05-04 02:14 34.77444 -92.84170 39026 ft 528 kts 97°
2026-05-04 02:14 34.76180 -92.75352 38937 ft 529 kts 97°
2026-05-04 02:15 34.75542 -92.70922 38268 ft 533 kts 97°
2026-05-04 02:15 34.74900 -92.66469 37623 ft 533 kts 97°
2026-05-04 02:15 34.74260 -92.62038 37081 ft 531 kts 97°
2026-05-04 02:15 34.73617 -92.57619 36572 ft 528 kts 97°
2026-05-04 02:16 34.72976 -92.53226 36036 ft 526 kts 98°
2026-05-04 02:16 34.72335 -92.48840 35490 ft 525 kts 98°
2026-05-04 02:16 34.71696 -92.44476 34953 ft 523 kts 98°
2026-05-04 02:16 34.71056 -92.40117 34397 ft 522 kts 98°
2026-05-04 02:17 34.70417 -92.35784 33844 ft 520 kts 98°
2026-05-04 02:17 34.69776 -92.31456 33249 ft 519 kts 98°
2026-05-04 02:17 34.69135 -92.27144 32666 ft 517 kts 98°
2026-05-04 02:17 34.68487 -92.22793 32051 ft 516 kts 98°
2026-05-04 02:18 34.67848 -92.18500 31419 ft 516 kts 98°
2026-05-04 02:18 34.67262 -92.14197 30787 ft 515 kts 96°
2026-05-04 02:18 34.66745 -92.09939 30167 ft 515 kts 96°
2026-05-04 02:18 34.66232 -92.05574 29431 ft 515 kts 96°
2026-05-04 02:19 34.65730 -92.01339 28924 ft 510 kts 96°
2026-05-04 02:19 34.65221 -91.97113 28546 ft 502 kts 96°
2026-05-04 02:19 34.64706 -91.92894 28140 ft 495 kts 96°
2026-05-04 02:19 34.64199 -91.88779 27748 ft 489 kts 96°
2026-05-04 02:20 34.63694 -91.84714 27367 ft 483 kts 96°
2026-05-04 02:20 34.63193 -91.80691 26967 ft 478 kts 96°
2026-05-04 02:20 34.62697 -91.76713 26542 ft 474 kts 96°
2026-05-04 02:20 34.62211 -91.72828 26134 ft 470 kts 96°
2026-05-04 02:21 34.61713 -91.68864 25728 ft 465 kts 97°
2026-05-04 02:21 34.61233 -91.65047 25346 ft 461 kts 97°
2026-05-04 02:21 34.60741 -91.61158 24947 ft 457 kts 97°
2026-05-04 02:21 34.60259 -91.57346 24539 ft 454 kts 97°
2026-05-04 02:22 34.59780 -91.53573 24142 ft 450 kts 97°
2026-05-04 02:22 34.59308 -91.49873 23762 ft 447 kts 97°
2026-05-04 02:22 34.58826 -91.46100 23309 ft 444 kts 97°
2026-05-04 02:22 34.58358 -91.42455 22875 ft 440 kts 97°
2026-05-04 02:23 34.57882 -91.38755 22446 ft 435 kts 97°
2026-05-04 02:23 34.57423 -91.35184 22129 ft 430 kts 97°
2026-05-04 02:23 34.56963 -91.31606 21901 ft 428 kts 97°
2026-05-04 02:23 34.56505 -91.28047 21506 ft 425 kts 97°
2026-05-04 02:24 34.56047 -91.24509 21126 ft 422 kts 97°
2026-05-04 02:24 34.55591 -91.21000 20746 ft 419 kts 97°
2026-05-04 02:24 34.55136 -91.17507 20351 ft 417 kts 97°
2026-05-04 02:24 34.54683 -91.14043 19971 ft 414 kts 97°
2026-05-04 02:25 34.54230 -91.10600 19569 ft 411 kts 97°
2026-05-04 02:25 34.53781 -91.07190 19182 ft 408 kts 97°
2026-05-04 02:25 34.53335 -91.03801 18798 ft 405 kts 97°
2026-05-04 02:25 34.52892 -91.00441 18410 ft 402 kts 97°
2026-05-04 02:26 34.52450 -90.97109 17983 ft 399 kts 97°
2026-05-04 02:26 34.52011 -90.93801 17575 ft 395 kts 97°
2026-05-04 02:26 34.51574 -90.90523 17185 ft 391 kts 97°
2026-05-04 02:26 34.51142 -90.87278 16789 ft 387 kts 97°
2026-05-04 02:27 34.50712 -90.84063 16407 ft 384 kts 97°
2026-05-04 02:27 34.50318 -90.80863 16030 ft 382 kts 92°
2026-05-04 02:27 34.50638 -90.77728 15867 ft 373 kts 67°
2026-05-04 02:27 34.51917 -90.75037 15904 ft 367 kts 48°
2026-05-04 02:28 34.53566 -90.72668 15933 ft 367 kts 46°
2026-05-04 02:28 34.55230 -90.70320 15965 ft 367 kts 46°
2026-05-04 02:28 34.56895 -90.67942 16014 ft 370 kts 46°
2026-05-04 02:28 34.58520 -90.65585 16056 ft 359 kts 47°
2026-05-04 02:29 34.60107 -90.63267 16015 ft 357 kts 47°
2026-05-04 02:29 34.61746 -90.60876 16022 ft 380 kts 47°
2026-05-04 02:29 34.63425 -90.58327 15991 ft 390 kts 49°
2026-05-04 02:29 34.65102 -90.55700 15628 ft 398 kts 49°
2026-05-04 02:30 34.66797 -90.53027 15124 ft 397 kts 49°
2026-05-04 02:30 34.68486 -90.50369 14692 ft 395 kts 49°
2026-05-04 02:30 34.70167 -90.47729 14260 ft 392 kts 49°
2026-05-04 02:30 34.71834 -90.45117 13849 ft 390 kts 49°
2026-05-04 02:31 34.73496 -90.42516 13408 ft 387 kts 49°
2026-05-04 02:31 34.75143 -90.39937 12972 ft 385 kts 50°
2026-05-04 02:31 34.76782 -90.37369 12561 ft 382 kts 50°
2026-05-04 02:31 34.78392 -90.34842 12207 ft 373 kts 50°
2026-05-04 02:32 34.79946 -90.32395 12120 ft 357 kts 50°
2026-05-04 02:32 34.81439 -90.30043 12029 ft 347 kts 50°
2026-05-04 02:32 34.82916 -90.27722 11961 ft 346 kts 50°
2026-05-04 02:32 34.84381 -90.25418 11758 ft 341 kts 50°
2026-05-04 02:33 34.85821 -90.23152 11380 ft 335 kts 50°
2026-05-04 02:33 34.87238 -90.20920 10952 ft 327 kts 50°
2026-05-04 02:33 34.88613 -90.18752 10526 ft 319 kts 50°
2026-05-04 02:33 34.89950 -90.16641 10118 ft 307 kts 51°
2026-05-04 02:34 34.91226 -90.14624 9793 ft 294 kts 51°
2026-05-04 02:34 34.92477 -90.12688 9498 ft 289 kts 45°
2026-05-04 02:34 34.94114 -90.11356 9118 ft 282 kts 15°
2026-05-04 02:34 34.96033 -90.11081 9041 ft 279 kts 359°
2026-05-04 02:35 34.97977 -90.11074 8985 ft 280 kts 359°
2026-05-04 02:35 34.99918 -90.11067 8885 ft 277 kts 359°
2026-05-04 02:35 35.01840 -90.11045 8468 ft 277 kts 358°
2026-05-04 02:35 35.03770 -90.11015 8093 ft 277 kts 358°
2026-05-04 02:36 35.05697 -90.10981 7748 ft 276 kts 358°
2026-05-04 02:36 35.07607 -90.10946 7411 ft 275 kts 358°
2026-05-04 02:36 35.09512 -90.10911 7070 ft 273 kts 358°
2026-05-04 02:36 35.11409 -90.10902 6755 ft 272 kts 356°
2026-05-04 02:37 35.13295 -90.10932 6430 ft 270 kts 355°
2026-05-04 02:37 35.15167 -90.10967 6134 ft 268 kts 355°
2026-05-04 02:37 35.17025 -90.10999 5797 ft 267 kts 355°
2026-05-04 02:37 35.18875 -90.11030 5454 ft 266 kts 355°
2026-05-04 02:38 35.20724 -90.11058 5122 ft 265 kts 354°
2026-05-04 02:38 35.22569 -90.11086 4795 ft 264 kts 354°
2026-05-04 02:38 35.24408 -90.11037 4435 ft 268 kts
2026-05-04 02:38 35.26154 -90.10145 4014 ft 280 kts 34°
2026-05-04 02:39 35.27414 -90.08319 3621 ft 286 kts 63°
2026-05-04 02:39 35.27830 -90.06793 3382 ft 286 kts 80°
2026-05-04 02:39 35.28082 -90.04390 3075 ft 283 kts 90°
2026-05-04 02:39 35.27779 -90.02080 2960 ft 272 kts 119°
2026-05-04 02:40 35.26682 -90.00260 2984 ft 264 kts 142°
2026-05-04 02:40 35.24810 -89.98386 2973 ft 256 kts 153°
2026-05-04 02:40 35.23234 -89.97679 2961 ft 232 kts 176°
2026-05-04 02:40 35.21695 -89.97549 2990 ft 212 kts 184°
2026-05-04 02:41 35.20290 -89.97561 3017 ft 193 kts 186°
2026-05-04 02:41 35.19411 -89.97570 2983 ft 182 kts 186°
2026-05-04 02:41 35.18159 -89.97570 2866 ft 179 kts 185°
2026-05-04 02:41 35.16923 -89.97555 2625 ft 176 kts 184°
2026-05-04 02:42 35.15702 -89.97531 2395 ft 175 kts 184°
2026-05-04 02:42 35.14491 -89.97504 2165 ft 172 kts 183°
2026-05-04 02:42 35.13304 -89.97476 1945 ft 170 kts 182°
2026-05-04 02:42 35.12137 -89.97449 1709 ft 163 kts 182°
2026-05-04 02:43 35.11043 -89.97424 1471 ft 151 kts 182°
2026-05-04 02:43 35.10019 -89.97403 1290 ft 146 kts 182°
2026-05-04 02:43 35.09016 -89.97384 1101 ft 146 kts 180°
2026-05-04 02:43 35.08005 -89.97362 930 ft 145 kts 180°
2026-05-04 02:44 35.07000 -89.97340 737 ft 144 kts 179°
2026-05-04 02:44 35.05998 -89.97317 543 ft 144 kts 179°
2026-05-04 02:44 35.05004 -89.97297 374 ft 142 kts 179°
2026-05-04 02:44 35.04051 -89.97278 320 ft 122 kts 179°
2026-05-04 02:45 35.03396 -89.97263 315 ft 70 kts 179°
2026-05-04 02:45 35.02929 -89.97254 309 ft 41 kts 179°
2026-05-04 02:45 35.02662 -89.97249 302 ft 26 kts 173°
2026-05-04 02:45 35.02574 -89.97164 303 ft 6 kts 120°
2026-05-04 02:46 35.02572 -89.97096 304 ft 10 kts 70°
2026-05-04 02:46 35.02590 -89.97060 305 ft 0 kts 52°
2026-05-04 02:46 35.02609 -89.97038 307 ft 12 kts 33°
2026-05-04 02:47 35.02700 -89.97026 305 ft 14 kts 355°
2026-05-04 02:47 35.02816 -89.97049 307 ft 19 kts 349°
2026-05-04 02:47 35.02955 -89.97073 308 ft 21 kts 357°
2026-05-04 02:47 35.03107 -89.97075 311 ft 23 kts 359°
2026-05-04 02:48 35.03267 -89.97079 315 ft 23 kts 359°